Simultaneous Nadir Overpasses (SNOs) Predictions

Prediction of SNOs between GOES-16 and NOAA-20 Satellite Orbit:

Table of predicted SNOs for the next 14.0 days since TLE Epoch: 2/11/2023
Index Date Time (GOES-16) GOES-16 Lat,Lon NOAA-20 Lat,Lon Distance(km) Time Diff (sec)
1 02/11/2023 06:32:14 -0.05, -75.19 0.25, -76.41 139.61 80
2 02/12/2023 06:10:49 -0.05, -75.20 -0.80, -71.88 377.63 80
3 02/13/2023 18:32:45 0.05, -75.21 -0.41, -77.18 225.16 80
4 02/14/2023 18:16:40 0.05, -75.21 0.64, -72.65 292.25 80
5 02/16/2023 06:38:27 -0.04, -75.21 0.56, -77.91 306.93 80
6 02/17/2023 06:17:01 -0.04, -75.22 -0.45, -73.37 210.48 80
7 02/18/2023 18:38:56 0.02, -75.23 -0.75, -78.67 391.73 80
8 02/19/2023 18:22:51 0.02, -75.24 0.26, -74.13 126.37 80
9 02/21/2023 06:44:37 -0.01, -75.26 0.93, -79.39 471.14 80
10 02/22/2023 06:23:12 -0.01, -75.27 -0.08, -74.85 47.32 80
11 02/24/2023 18:29:02 0.02, -75.32 -0.07, -75.62 34.70 80
